Avery Island, LA

4:01 AM CDT on September 25, 2016 (GMT -0500)
Acadiana Regional

Weather History for KARA - June, 2013

Change the Weather History Date:

Saturday, June 29, 2013

  Actual Average Record
Temperature  
Mean Temperature 85 °F 82 °F  
Max Temperature 94 °F 91 °F 100 °F (2009)
Min Temperature 76 °F 73 °F 63 °F (1974)
Degree Days  
Heating Degree Days 0 0  
Month to date heating degree days 0 0  
Since 1 June heating degree days 0 0  
Since 1 July heating degree days 1150 1409  
Cooling Degree Days 20 17  
Month to date cooling degree days 545 455  
Year to date cooling degree days 1126 1025  
Since 1 June cooling degree days 545 455  
Growing Degree Days 36 (Base 50)    
Moisture  
Dew Point 75 °F    
Average Humidity 72    
Maximum Humidity 91    
Minimum Humidity 52    
Precipitation  
Precipitation 0.05 in 0.20 in 1.97 in (1986)
Month to date precipitation 6.18 6.70  
Year to date precipitation 41.55 28.93  
Sea Level Pressure  
Sea Level Pressure 29.79 in    
Wind  
Wind Speed 7 mph (WSW)    
Max Wind Speed 23 mph    
Max Gust Speed 31 mph    
Visibility 9 miles    
Events Rain , Thunderstorm    
T = Trace of Precipitation, MM = Missing Value Source: NWS Daily Summary

Daily Weather History Graph

Daily Weather History Graph

Search for Another Location

Airport or City:

Trip Planner

Search our weather history database for the weather conditions in past years. The results will help you decide how hot, cold, wet, or windy it might be!

Date:

Astronomy

Jun. 29, 2013 Rise Set
Actual Time 6:09 AM CDT 8:12 PM CDT
Civil Twilight 5:41 AM CDT 8:40 PM CDT
Nautical Twilight 5:08 AM CDT 9:13 PM CDT
Astronomical Twilight 4:32 AM CDT 9:49 PM CDT
Moon 12:11 AM CDT (6/29) 12:48 PM CDT (6/29)
Length of Visible Light 14h 58m
Length of Day
14h 03m
Waning Gibbous, 55% of the Moon is Illuminated
Jun 29
Waning Gibbous
Jun 29
Last Quarter
Jul 8
New
Jul 15
First Quarter
Jul 22
Full

Hourly Weather History & Observations

Time (CDT) Temp. Heat Index Dew Point Humidity Pressure Visibility Wind Dir Wind Speed Gust Speed Precip Events Conditions
12:53 AM 81.0 °F 87.3 °F 75.9 °F 85% 29.83 in 10.0 mi SW 4.6 mph - N/A   Clear
1:53 AM 81.0 °F 87.9 °F 77.0 °F 88% 29.82 in 10.0 mi West 3.5 mph - N/A   Clear
2:53 AM 81.0 °F 87.9 °F 77.0 °F 88% 29.81 in 10.0 mi SW 4.6 mph - N/A   Clear
3:53 AM 81.0 °F 87.9 °F 77.0 °F 88% 29.80 in 10.0 mi SW 4.6 mph - N/A   Scattered Clouds
4:53 AM 81.0 °F 87.9 °F 77.0 °F 88% 29.79 in 9.0 mi WSW 9.2 mph - N/A   Scattered Clouds
5:45 AM 82.4 °F 90.9 °F 77.0 °F 84% 29.81 in 10.0 mi West 5.8 mph - N/A   Overcast
5:53 AM 82.0 °F 90.2 °F 77.0 °F 85% 29.81 in 10.0 mi WSW 9.2 mph - N/A   Overcast
6:00 AM 82.4 °F 90.9 °F 77.0 °F 84% 29.80 in 10.0 mi West 6.9 mph - N/A   Mostly Cloudy
6:13 AM 82.4 °F 92.4 °F 78.8 °F 89% 29.81 in 10.0 mi WNW 6.9 mph - N/A Thunderstorm Thunderstorm
6:23 AM 80.6 °F 86.2 °F 75.2 °F 84% 29.82 in 2.5 mi West 23.0 mph 31.1 mph 0.00 in Rain , Thunderstorm Heavy Thunderstorms and Rain
6:26 AM 80.6 °F 84.6 °F 71.6 °F 74% 29.81 in 1.8 mi WSW 17.3 mph 31.1 mph 0.00 in Rain , Thunderstorm Heavy Thunderstorms and Rain
6:34 AM 78.8 °F - 73.4 °F 83% 29.82 in 3.0 mi WSW 5.8 mph 27.6 mph N/A Rain , Thunderstorm Heavy Thunderstorms and Rain
6:53 AM 80.1 °F 85.4 °F 75.9 °F 87% 29.82 in 10.0 mi West 3.5 mph - N/A Thunderstorm Thunderstorm
7:01 AM 80.6 °F 87.1 °F 77.0 °F 89% 29.82 in 8.0 mi Calm Calm - N/A   Mostly Cloudy
7:28 AM 80.6 °F 87.1 °F 77.0 °F 89% 29.83 in 9.0 mi Calm Calm - N/A   Overcast
7:53 AM 81.0 °F 87.9 °F 77.0 °F 88% 29.84 in 10.0 mi Calm Calm - N/A   Overcast
8:20 AM 80.6 °F 87.1 °F 77.0 °F 89% 29.84 in 10.0 mi ENE 3.5 mph - N/A   Mostly Cloudy
8:53 AM 79.0 °F - 75.9 °F 90% 29.84 in 7.0 mi ESE 6.9 mph - N/A   Mostly Cloudy
9:53 AM 78.1 °F - 75.0 °F 90% 29.84 in 10.0 mi SE 12.7 mph - N/A   Scattered Clouds
10:53 AM 78.1 °F - 73.0 °F 84% 29.83 in 10.0 mi South 10.4 mph - N/A   Scattered Clouds
11:53 AM 82.9 °F 90.2 °F 75.0 °F 77% 29.83 in 10.0 mi South 10.4 mph - N/A   Partly Cloudy
12:53 PM 87.1 °F 98.8 °F 77.0 °F 72% 29.81 in 10.0 mi South 10.4 mph - N/A   Partly Cloudy
1:09 PM 87.8 °F 99.7 °F 77.0 °F 70% 29.81 in 10.0 mi SSW 10.4 mph - N/A   Mostly Cloudy
1:35 PM 87.8 °F 102.5 °F 78.8 °F 75% 29.80 in 10.0 mi SW 10.4 mph - N/A   Scattered Clouds
1:53 PM 89.1 °F 104.4 °F 79.0 °F 72% 29.79 in 10.0 mi SSW 8.1 mph - 0.01 in   Mostly Cloudy
2:00 PM 89.6 °F 104.7 °F 78.8 °F 70% 29.78 in 10.0 mi SSW 6.9 mph - N/A   Scattered Clouds
2:53 PM 91.0 °F 102.9 °F 75.9 °F 61% 29.77 in 10.0 mi West 8.1 mph - N/A   Partly Cloudy
3:53 PM 93.0 °F 105.3 °F 75.9 °F 57% 29.74 in 10.0 mi SW 5.8 mph - 0.01 in   Clear
4:53 PM 93.9 °F 104.0 °F 73.9 °F 52% 29.73 in 10.0 mi WSW 6.9 mph - 0.01 in   Clear
5:53 PM 91.0 °F 107.6 °F 79.0 °F 68% 29.70 in 10.0 mi WSW 9.2 mph - N/A   Partly Cloudy
6:08 PM 89.6 °F 104.7 °F 78.8 °F 70% 29.70 in 10.0 mi WSW 15.0 mph 20.7 mph N/A Thunderstorm Thunderstorm
6:53 PM 88.0 °F 103.1 °F 79.0 °F 75% 29.71 in 10.0 mi NW 8.1 mph - 0.00 in Thunderstorm Thunderstorm
7:17 PM 86.0 °F 93.4 °F 73.4 °F 66% 29.70 in 10.0 mi North 6.9 mph - 0.00 in   Mostly Cloudy
7:24 PM 86.0 °F 91.8 °F 71.6 °F 62% 29.70 in 10.0 mi North 6.9 mph - 0.00 in   Mostly Cloudy
7:32 PM 86.0 °F 91.8 °F 71.6 °F 62% 29.73 in 10.0 mi Calm Calm - 0.00 in   Scattered Clouds
7:53 PM 86.0 °F 90.7 °F 70.0 °F 59% 29.73 in 10.0 mi Variable 5.8 mph - 0.00 in   Mostly Cloudy
8:53 PM 82.0 °F 87.9 °F 73.9 °F 76% 29.75 in 10.0 mi WSW 4.6 mph - 0.01 in   Overcast
9:04 PM 80.6 °F 85.4 °F 73.4 °F 79% 29.77 in 10.0 mi SW 10.4 mph - N/A Thunderstorm Mostly Cloudy
9:36 PM 78.8 °F - 69.8 °F 74% 29.76 in 10.0 mi SSW 9.2 mph - N/A   Partly Cloudy
9:53 PM 78.1 °F - 70.0 °F 76% 29.76 in 10.0 mi WSW 8.1 mph - N/A   Clear
10:53 PM 79.0 °F - 72.0 °F 79% 29.78 in 10.0 mi NW 3.5 mph - N/A   Scattered Clouds
11:53 PM 77.0 °F - 72.0 °F 84% 29.78 in 10.0 mi NW 3.5 mph - N/A   Clear